Terminal Aerodrome Forecast
Issued by NWS North Platte, NE

Home | Current Version | Previous Version | Text Only | Print | Product List | Glossary On
Versions: 1 2 3 4 5 6 7 8 9 10 11 12 13 14 15 16 17 18 19 20 21 22 23 24 25 26 27 28 29 30 31 32 33 34 35 36
000
FTUS43 KLBF 180200 AAA
TAFLBF
TAF AMD
KLBF 180215Z 1802/1824 16004KT 5SM BR OVC005
     FM180700 16005KT 2SM BR OVC002
     FM181500 16005KT 3SM BR OVC004
     FM181800 21007KT P6SM OVC006=

USA.gov is the U.S. government's official web portal to all federal, state and local government web resources and services.